TimeCST,TemperatureF,Dew PointF,Humidity,Sea Level PressureIn,VisibilityMPH,Wind Direction,Wind SpeedMPH,Gust SpeedMPH,PrecipitationIn,Events,Conditions,WindDirDegrees,DateUTC
12:54 AM,42.1,15.1,34,29.40,10.0,SW,25.3,35.7,N/A,,Mostly Cloudy,230,2013-02-10 06:54:00
1:54 AM,35.1,27.0,72,29.44,10.0,WNW,16.1,-,N/A,,Clear,290,2013-02-10 07:54:00
2:54 AM,36.0,28.0,73,29.46,10.0,West,19.6,-,N/A,,Overcast,280,2013-02-10 08:54:00
3:54 AM,33.1,28.0,82,29.48,10.0,West,18.4,-,0.00,,Overcast,270,2013-02-10 09:54:00
4:54 AM,33.1,21.0,61,29.51,10.0,WNW,26.5,40.3,N/A,,Clear,290,2013-02-10 10:54:00
5:54 AM,32.0,21.0,64,29.55,10.0,West,25.3,35.7,N/A,,Clear,280,2013-02-10 11:54:00
6:54 AM,30.9,19.9,64,29.59,10.0,West,23.0,-,N/A,,Clear,280,2013-02-10 12:54:00
7:54 AM,32.0,19.0,59,29.62,10.0,WNW,25.3,38.0,N/A,,Clear,300,2013-02-10 13:54:00
8:54 AM,35.1,19.9,54,29.64,10.0,NW,34.5,44.9,N/A,,Clear,310,2013-02-10 14:54:00
9:54 AM,36.0,19.9,52,29.68,10.0,NW,31.1,44.9,N/A,,Clear,320,2013-02-10 15:54:00
10:54 AM,39.0,19.9,46,29.71,10.0,NNW,34.5,50.6,N/A,,Clear,330,2013-02-10 16:54:00
11:54 AM,41.0,19.9,43,29.73,10.0,NNW,41.4,49.5,N/A,,Partly Cloudy,330,2013-02-10 17:54:00
12:54 PM,43.0,18.0,37,29.76,10.0,NW,32.2,43.7,N/A,,Scattered Clouds,310,2013-02-10 18:54:00
1:54 PM,44.1,19.0,37,29.79,10.0,NW,33.4,39.1,N/A,,Mostly Cloudy,320,2013-02-10 19:54:00
2:54 PM,44.1,17.1,34,29.80,10.0,NNW,24.2,34.5,N/A,,Partly Cloudy,330,2013-02-10 20:54:00
3:54 PM,45.0,17.1,33,29.84,10.0,NNW,25.3,38.0,N/A,,Partly Cloudy,330,2013-02-10 21:54:00
4:54 PM,44.1,17.1,34,29.88,10.0,NNW,20.7,31.1,N/A,,Scattered Clouds,340,2013-02-10 22:54:00
5:54 PM,39.9,17.1,40,29.92,10.0,NNW,13.8,-,N/A,,Clear,340,2013-02-10 23:54:00
6:54 PM,32.0,17.1,54,29.98,10.0,NNW,8.1,-,N/A,,Clear,340,2013-02-11 00:54:00
7:54 PM,30.9,18.0,59,30.03,10.0,NNW,9.2,-,N/A,,Clear,340,2013-02-11 01:54:00
8:54 PM,28.9,19.0,67,30.06,10.0,North,9.2,-,N/A,,Clear,350,2013-02-11 02:54:00
9:54 PM,28.0,19.0,69,30.09,10.0,NNW,10.4,-,N/A,,Clear,330,2013-02-11 03:54:00
10:54 PM,27.0,18.0,69,30.09,10.0,North,10.4,-,N/A,,Clear,350,2013-02-11 04:54:00
11:54 PM,25.0,17.1,72,30.11,10.0,NNW,8.1,-,N/A,,Clear,330,2013-02-11 05:54:00